Location: Härggis
(46.9540°N, 8.4897°E)
Time: 21:33:33
(UTC+00:00)

SL-16 R/B - Pass Details

Date: 05 October 2022
Orbit: 985 x 1007 km, 99.6° (Epoch: 05 December)

Event Time Altitude Azimuth Distance (km) Brightness Sun altitude
Exits shadow 01:51:04 17° 336° (NNW) 2,293 4.5 -36.0°
Drops below altitude 10° 01:52:23 10° 339° (NNW) 2,778 5.0 -35.8°
Sets 01:54:55 0° 343° (NNW) 3,735 5.8 -35.5°
